Location: City of Britt
(43.0975°N, 93.8032°W)
Time: 10:00:12
(UTC+00:00)

Tiangong - Visible Passes

Search period start: 10 October 2024 00:00
Search period end: 20 October 2024 00:00
Orbit: 373 x 377 km, 41.5° (Epoch: 09 October)

Date Brightness Start Highest point End Pass type
(mag) Time Alt. Az. Time Alt. Az. Time Alt. Az.
16 Oct 0.6 11:53:29 10° SSW 11:55:29 16° SSE 11:57:30 10° ESE visible
18 Oct -0.1 11:22:50 10° SSW 11:25:20 22° SSE 11:27:50 10° ESE visible
19 Oct 0.7 10:22:45 13° SE 10:22:45 13° SE 10:23:51 10° ESE visible
19 Oct -1.3 11:55:18 10° WSW 11:58:16 44° SSE 12:01:15 10° E visible
